Dewpoint
14 25 24 30 29 24 24 21 28 35 37 44 51 54 59 59 60 58 57 53 52 57 60 61 61 61 59 58 57 57 56 60 60 61 61 61 60 60 61 61 61 62 61 62
21 22 28 28 27 26 25 25 21 38 39 44 47 53 57 59 58 58 56 52 54 59 61 62 62 60 60 60 57 57 57 59 60 60 61 59 59 58 57 58 58 58 58 59
20 26 27 28 32 32 25 32 32 34 41 47 49 53 54 57 59 58 55 53 56 59 60 62 63 62 60 59 58 58 58 59 60 59 59 58 58 56 56 58 56 56 59 60
25 28 25 40 43 39 41 44 44 46 46 48 48 49 56 57 59 58 56 54 58 60 62 63 64 62 61 59 58 57 57 58 58 57 58 57 55 55 55 57 58 61 62 62
25 28 29 42 43 40 39 43 47 49 50 49 46 45 46 59 60 59 57 57 59 61 64 64 62 59 59 59 58 57 57 58 57 57 57 56 57 57 57 57 55 57 60 60
46 38 35 44 46 46 41 39 50 52 54 51 53 46 51 60 61 59 61 60 60 63 64 61 60 60 58 58 57 57 58 57 58 57 56 56 57 57 57 56 57 57 59 60
43 40 41 46 47 47 35 39 46 51 53 57 55 56 55 61 60 61 62 62 62 63 61 61 61 60 58 58 56 57 57 58 57 57 56 57 58 57 57 56 57 57 58 60
47 43 40 49 48 45 52 51 51 54 55 57 56 56 59 61 62 61 63 64 64 63 61 61 61 60 57 54 58 57 57 56 57 57 57 56 55 56 56 57 56 56 55 57
47 51 57 54 54 56 56 54 52 53 54 55 56 57 61 61 61 63 62 62 63 61 60 60 58 56 55 58 56 55 55 56 57 57 56 56 56 56 57 57 53 50 50 50
49 51 53 56 56 55 55 55 53 54 54 56 56 58 59 60 60 60 61 61 61 59 58 57 56 53 58 57 55 55 54 55 56 56 56 58 58 57 57 54 48 47 46 45
48 53 55 54 55 53 55 53 53 54 56 57 57 57 58 59 60 60 59 59 59 59 58 57 57 55 54 55 53 52 53 54 55 55 55 54 57 55 53 53 50 48 46 43
52 52 54 56 58 53 53 53 55 56 56 57 57 57 58 59 59 59 59 59 60 59 60 59 56 55 54 54 53 52 52 52 53 51 51 53 54 54 50 52 47 46 46 45
52 54 52 55 50 52 53 53 54 55 55 54 55 56 58 58 59 59 59 59 58 57 57 57 55 54 55 53 51 51 51 51 53 48 47 49 47 47 46 50 47 45 44 44
54 51 49 50 50 50 53 53 53 53 54 54 55 55 57 56 57 58 58 58 58 57 55 55 54 53 54 54 52 53 53 52 50 48 45 46 48 46 45 45 49 49 46 44
50 49 47 49 51 50 53 53 53 52 53 53 55 55 57 55 56 56 57 57 56 54 53 54 54 54 54 54 53 52 53 52 51 50 49 49 48 46 45 44 44 47 50 45
50 49 48 51 52 51 53 52 52 53 54 55 55 55 57 56 56 54 53 54 53 52 54 53 54 55 56 53 53 52 51 55 53 50 49 46 44 45 48 47 47 45 47 49
55 55 54 51 52 52 52 55 55 57 59 59 59 59 54 54 54 53 53 53 54 56 56 55 55 56 57 56 54 52 50 50 53 50 48 47 47 45 45 47 45 44 44 47
56 56 56 57 56 56 56 57 57 58 59 60 61 60 59 57 53 54 55 55 56 55 54 56 58 58 57 55 53 53 52 50 48 49 48 47 47 47 47 46 45 45 44 45
56 56 56 57 57 57 56 57 58 59 60 58 59 58 58 59 59 58 58 57 57 56 56 57 59 60 58 58 56 54 53 51 50 49 48 48 48 47 45 45 44 44 44 44
52 53 53 54 54 56 56 58 59 59 58 59 57 57 59 58 58 57 58 57 57 58 57 57 58 59 57 58 60 54 53 52 50 50 50 50 48 48 48 47 46 46 46 45
53 53 54 54 55 55 54 55 55 56 59 59 58 57 57 58 59 58 57 57 59 60 58 58 57 58 58 56 59 56 55 53 52 51 50 49 50 49 48 47 47 46 47 47
54 54 54 55 55 54 54 53 55 55 56 57 57 57 57 57 56 56 58 56 55 54 58 57 59 58 57 59 56 56 55 53 52 52 51 51 52 52 51 51 50 50 48 50
55 55 54 55 54 57 56 55 55 56 56 57 57 57 57 58 57 57 56 57 56 55 57 56 56 56 56 54 55 54 53 53 53 53 52 52 52 52 52 52 51 51 50 50
56 56 56 56 54 52 52 56 54 57 57 56 56 56 57 55 55 58 57 54 51 51 54 56 55 55 55 57 56 55 56 56 56 55 55 50 52 53 52 53 53 52 51 50
57 56 54 49 47 47 47 50 49 46 46 46 45 46 43 48 47 46 47 44 45 43 44 48 52 52 53 56 59 58 59 59 59 58 57 57 57 58 58 58 57 56 55 54
52 52 48 44 42 43 42 43 43 40 39 39 41 43 43 41 41 40 40 41 40 43 43 45 47 48 52 52 52 53 56 56 55 55 56 58 58 59 58 58 59 58 58 58
45 44 43 40 38 40 40 41 41 39 38 39 40 40 39 38 38 38 39 39 39 40 40 42 43 44 44 45 48 49 48 47 48 49 49 49 50 54 56 57 57 57 58 59
Lifted_Index
1 0 -0 0 0 -0 -0 -0 -0 -1 -0 -1 -1 -1 -1 -2 -4 -5 -4 -3 -2 -0 0 1 1 2 2 3 4 4 4 4 4 5 5 5 6 7 7 6 6 6 6 5
1 0 -0 -0 -0 0 -0 -0 -0 -1 -1 -1 -2 -2 -2 -3 -5 -5 -4 -3 -2 -0 -0 0 1 1 2 3 4 4 4 4 4 5 5 6 7 7 7 7 6 6 6 5
1 0 -0 -1 -0 -0 -0 -0 -1 -1 -1 -1 -2 -3 -4 -4 -5 -5 -4 -3 -1 -1 -0 -0 -0 1 2 3 4 4 5 5 5 5 6 6 7 7 7 7 6 6 5 5
1 0 -0 -1 -0 -0 -0 -1 -1 -1 -1 -1 -2 -3 -4 -5 -5 -5 -4 -3 -2 -1 -1 -1 -1 0 1 3 4 4 4 5 5 6 6 7 7 7 7 7 6 6 5 4
-0 -0 -0 -1 -0 0 -0 -0 -0 -0 -1 -1 -1 -2 -4 -5 -5 -5 -4 -3 -2 -2 -2 -2 -1 -1 1 2 3 3 4 4 5 6 6 6 7 7 7 7 7 6 5 4
-1 -0 -0 -0 -0 0 0 0 -0 -0 -0 -0 -0 -2 -4 -5 -5 -5 -5 -4 -3 -3 -3 -2 -2 -1 -0 1 2 3 4 5 5 6 6 6 6 6 6 7 7 6 5 5
-0 -0 -0 -0 -0 0 0 0 -0 -1 -1 -1 -1 -3 -5 -6 -6 -5 -4 -4 -4 -3 -3 -3 -3 -2 -1 1 2 4 5 5 6 6 6 6 6 6 6 6 7 6 6 6
-1 -1 -0 -0 -1 -1 -0 -0 -1 -2 -2 -2 -3 -4 -6 -6 -6 -5 -4 -4 -3 -3 -3 -3 -3 -2 -0 1 3 5 5 6 6 6 6 6 7 7 6 6 7 7 7 7
-1 -1 -1 -1 -1 -1 -1 -1 -1 -2 -3 -4 -4 -5 -6 -6 -6 -5 -4 -3 -3 -3 -3 -3 -2 -1 1 3 4 5 6 6 6 5 6 6 6 7 6 6 7 9 10 10
-1 -1 -1 -1 -1 -1 -1 -1 -1 -2 -3 -4 -4 -5 -5 -5 -5 -5 -4 -3 -3 -2 -2 -2 -1 1 3 4 5 6 6 6 6 6 6 6 6 7 7 7 8 10 12 12
-1 -1 -1 -1 -1 -2 -2 -2 -2 -3 -4 -4 -4 -4 -5 -5 -4 -4 -3 -2 -2 -1 -1 -0 1 2 4 5 6 7 7 7 6 6 6 6 7 7 8 8 9 10 12 13
-2 -1 -1 -1 -2 -3 -3 -3 -3 -4 -4 -4 -4 -4 -4 -4 -4 -3 -2 -2 -1 -0 0 1 2 3 4 6 7 7 7 7 7 7 7 8 8 8 9 9 9 10 11 12
-1 -1 -1 -2 -3 -3 -4 -4 -4 -4 -3 -3 -3 -3 -3 -3 -3 -2 -2 -1 -1 0 1 1 2 4 5 6 7 7 7 7 7 8 8 9 9 9 10 10 10 10 10 11
-2 -2 -2 -3 -3 -3 -3 -3 -3 -3 -2 -2 -2 -2 -2 -2 -2 -2 -2 -1 -0 0 1 2 3 4 5 6 6 7 7 7 7 8 9 9 9 9 10 10 10 10 10 10
-2 -2 -2 -2 -2 -3 -3 -3 -3 -2 -2 -2 -2 -2 -2 -2 -2 -2 -1 -1 0 1 2 3 4 4 5 5 6 7 7 7 7 8 8 8 8 9 9 10 10 9 9 9
-2 -2 -2 -2 -2 -2 -3 -3 -2 -2 -2 -1 -2 -2 -2 -2 -1 -1 -0 0 1 2 2 3 3 4 4 5 6 6 7 7 7 7 8 8 8 9 9 9 9 9 9 9
-2 -2 -2 -1 -2 -2 -2 -2 -2 -2 -2 -1 -1 -1 -1 -1 -0 -0 0 1 1 2 2 2 3 3 3 4 5 6 6 7 7 7 8 8 8 8 9 8 8 8 8 8
-2 -2 -2 -2 -2 -2 -2 -2 -2 -2 -2 -2 -1 -1 -1 -1 -0 -0 0 0 1 1 1 2 2 2 2 3 4 5 5 6 6 7 7 7 8 8 8 8 8 8 8 7
-2 -2 -2 -2 -2 -2 -2 -2 -2 -2 -2 -1 -1 -1 -1 -1 -1 -1 -1 -0 -0 0 1 1 1 1 1 2 2 3 4 4 5 6 6 6 6 6 7 7 7 6 6 6
-1 -0 -0 -0 -0 -1 -1 -1 -1 -1 -1 -1 -1 -1 -1 -1 -1 -1 -1 -1 -0 -0 -0 -0 -0 -0 0 1 1 2 2 3 4 4 5 5 5 5 5 5 5 5 5 5
0 1 1 1 1 1 1 0 -0 -0 -1 -1 -1 -1 -1 -1 -0 -0 0 0 0 -0 -1 -1 -1 -0 0 1 1 2 2 3 3 3 4 4 4 4 4 4 4 4 4 4
1 1 1 1 1 1 1 1 1 1 0 0 -0 -0 -0 0 1 1 1 1 1 0 -0 0 0 1 1 1 2 2 2 2 2 3 3 3 3 3 3 3 3 3 3 3
1 1 1 1 1 1 1 2 2 1 1 1 1 1 1 2 2 2 2 2 2 1 1 1 1 2 2 2 2 2 2 2 2 2 2 2 2 2 2 2 2 1 1 2
1 1 1 2 2 2 2 2 2 2 2 2 2 3 3 4 3 3 3 3 2 2 2 2 2 2 2 2 2 1 1 1 1 1 1 1 1 1 1 1 1 1 1 1
2 2 2 2 2 3 3 3 3 3 3 3 4 5 6 6 5 5 5 5 4 4 4 4 4 3 3 2 1 1 1 1 1 1 1 1 1 1 1 0 0 0 0 0
3 3 3 3 3 4 4 5 5 5 5 6 7 8 8 8 8 8 8 8 8 8 9 8 8 6 5 4 3 3 2 2 2 1 1 1 1 1 1 0 0 0 0 0
5 4 4 4 4 5 5 6 6 6 6 7 9 9 10 10 10 10 10 10 10 11 11 11 10 9 8 6 5 5 4 3 3 3 2 2 2 1 1 1 1 1 1 1